ETD1345 LFBO-LIME

Flight info

Callsign ETD1345
Flight time N/A
Altitude 36000
Route MEN DCT NINUN DCT LATAM DCT ROMAM/N0449F370 DCT ETIDO/N0416F270 DCT NEDRU DCT RILIP DCT EMMEF/N0404F250 DCT LAPRI DCT KUMIN/N0397F240 DCT MOGBO/N0404F250 DCT TOP/N0370F190 M135 DIXER
Aircraft A321/M-SDE3FGHIRWY/LB1

Departure

Time 2026-05-04 21:25
Airport Toulouse-Blagnac Airport (LFBO)

Arrival

Time N/A
Airport Il Caravaggio International Airport (LIME)
Time Latitude Longitude Altitude Speed Heading
2026-05-04 20:31 43.62865 1.37588 499 ft 0 kts 53°
2026-05-04 21:14 43.62861 1.37581 499 ft 4 kts 53°
2026-05-04 21:14 43.62846 1.37551 499 ft 4 kts 62°
2026-05-04 21:14 43.62837 1.37518 499 ft 4 kts 86°
2026-05-04 21:15 43.62839 1.37491 499 ft 0 kts 110°
2026-05-04 21:18 43.62836 1.37501 499 ft 3 kts 110°
2026-05-04 21:18 43.62819 1.37543 499 ft 7 kts 136°
2026-05-04 21:19 43.62767 1.37597 499 ft 11 kts 142°
2026-05-04 21:19 43.62720 1.37632 499 ft 9 kts 193°
2026-05-04 21:19 43.62693 1.37596 499 ft 0 kts 233°
2026-05-04 21:20 43.62692 1.37595 499 ft 1 kts 233°
2026-05-04 21:20 43.62679 1.37570 499 ft 5 kts 233°
2026-05-04 21:20 43.62652 1.37516 499 ft 9 kts 239°
2026-05-04 21:20 43.62611 1.37432 499 ft 11 kts 231°
2026-05-04 21:21 43.62566 1.37358 499 ft 12 kts 216°
2026-05-04 21:21 43.62482 1.37378 499 ft 15 kts 143°
2026-05-04 21:21 43.62391 1.37475 499 ft 18 kts 143°
2026-05-04 21:21 43.62286 1.37584 499 ft 16 kts 143°
2026-05-04 21:22 43.62238 1.37634 499 ft 7 kts 143°
2026-05-04 21:22 43.62188 1.37679 499 ft 11 kts 165°
2026-05-04 21:22 43.62125 1.37608 499 ft 14 kts 228°
2026-05-04 21:22 43.62079 1.37513 499 ft 7 kts 266°
2026-05-04 21:23 43.62112 1.37452 499 ft 9 kts 322°
2026-05-04 21:23 43.62119 1.37445 499 ft 0 kts 323°
2026-05-04 21:24 43.62138 1.37425 499 ft 22 kts 323°
2026-05-04 21:24 43.62449 1.37098 499 ft 88 kts 322°
2026-05-04 21:24 43.63092 1.36429 500 ft 141 kts 322°
2026-05-04 21:25 43.63932 1.35539 805 ft 157 kts 320°
2026-05-04 21:25 43.64787 1.34647 1627 ft 148 kts 318°
2026-05-04 21:25 43.65577 1.33782 2266 ft 144 kts 317°
2026-05-04 21:25 43.66327 1.32870 2766 ft 144 kts 317°
2026-05-04 21:26 43.67114 1.32009 3218 ft 145 kts 321°
2026-05-04 21:26 43.67920 1.31153 3641 ft 149 kts 320°
2026-05-04 21:26 43.68810 1.30291 3906 ft 165 kts 334°
2026-05-04 21:26 43.69942 1.29990 4233 ft 183 kts 354°
2026-05-04 21:27 43.71235 1.30630 4558 ft 210 kts 37°
2026-05-04 21:27 43.72135 1.32273 4986 ft 225 kts 54°
2026-05-04 21:27 43.73007 1.34144 5395 ft 239 kts 54°
2026-05-04 21:27 43.73960 1.36127 5829 ft 256 kts 54°
2026-05-04 21:28 43.75116 1.38062 6337 ft 267 kts 36°
2026-05-04 21:28 43.76740 1.39362 6799 ft 275 kts 22°
2026-05-04 21:28 43.78499 1.40435 7324 ft 278 kts 21°
2026-05-04 21:28 43.80314 1.41396 8042 ft 281 kts 14°
2026-05-04 21:29 43.82203 1.42135 8756 ft 284 kts 13°
2026-05-04 21:29 43.84106 1.42832 9641 ft 279 kts 13°
2026-05-04 21:29 43.85978 1.43515 10432 ft 278 kts 12°
2026-05-04 21:29 43.87838 1.44186 11045 ft 283 kts 13°
2026-05-04 21:30 43.89759 1.44874 11640 ft 288 kts 13°
2026-05-04 21:30 43.91719 1.45573 12231 ft 293 kts 13°
2026-05-04 21:30 43.93705 1.46281 12847 ft 297 kts 13°
2026-05-04 21:30 43.95721 1.47002 13462 ft 301 kts 13°
2026-05-04 21:31 43.99835 1.48463 14565 ft 309 kts 13°
2026-05-04 21:31 44.01934 1.49189 15104 ft 312 kts 13°
2026-05-04 21:31 44.03941 1.49869 15610 ft 315 kts 13°
2026-05-04 21:32 44.06141 1.50604 16145 ft 319 kts 13°
2026-05-04 21:32 44.08313 1.51317 16653 ft 322 kts 13°
2026-05-04 21:32 44.10512 1.52027 17151 ft 326 kts 13°
2026-05-04 21:32 44.12735 1.52735 17645 ft 329 kts 13°
2026-05-04 21:33 44.14982 1.53440 18119 ft 333 kts 13°
2026-05-04 21:33 44.17256 1.54142 18536 ft 336 kts 13°
2026-05-04 21:33 44.19541 1.54837 18935 ft 338 kts 13°
2026-05-04 21:33 44.21847 1.55531 19336 ft 340 kts 13°
2026-05-04 21:34 44.24108 1.56204 19718 ft 343 kts 13°
2026-05-04 21:34 44.26479 1.56901 20093 ft 345 kts 13°
2026-05-04 21:34 44.28839 1.57587 20454 ft 347 kts 13°
2026-05-04 21:34 44.31210 1.58269 20779 ft 348 kts 13°
2026-05-04 21:35 44.33586 1.58947 21092 ft 350 kts 13°
2026-05-04 21:35 44.35983 1.59624 21382 ft 352 kts 13°
2026-05-04 21:35 44.38386 1.60298 21662 ft 354 kts 13°
2026-05-04 21:35 44.40805 1.60972 21922 ft 355 kts 13°
2026-05-04 21:36 44.43235 1.61643 22168 ft 357 kts 13°
2026-05-04 21:36 44.45679 1.62314 22410 ft 358 kts 13°
2026-05-04 21:36 44.48077 1.63088 22619 ft 357 kts 22°
2026-05-04 21:36 44.50208 1.64714 22782 ft 352 kts 43°
2026-05-04 21:37 44.51843 1.67205 22937 ft 345 kts 62°
2026-05-04 21:37 44.52839 1.70202 23087 ft 338 kts 77°
2026-05-04 21:37 44.53487 1.73358 23261 ft 337 kts 79°
2026-05-04 21:37 44.54104 1.76530 23412 ft 338 kts 79°
2026-05-04 21:38 44.54739 1.79704 23551 ft 338 kts 79°
2026-05-04 21:38 44.55384 1.82835 23646 ft 339 kts 78°
2026-05-04 21:38 44.56056 1.86055 23737 ft 340 kts 78°
2026-05-04 21:38 44.56713 1.89194 23817 ft 340 kts 78°
2026-05-04 21:39 44.57384 1.92386 23877 ft 341 kts 78°
2026-05-04 21:39 44.58056 1.95578 23920 ft 342 kts 78°
2026-05-04 21:39 44.58727 1.98785 23955 ft 342 kts 78°
2026-05-04 21:39 44.59396 2.01994 23970 ft 343 kts 78°
2026-05-04 21:40 44.60066 2.05204 23979 ft 343 kts 78°
2026-05-04 21:40 44.60738 2.08412 23972 ft 344 kts 78°
2026-05-04 21:40 44.61409 2.11641 23966 ft 344 kts 78°
2026-05-04 21:40 44.62067 2.14814 23952 ft 344 kts 78°
2026-05-04 21:41 44.62738 2.18027 23983 ft 341 kts 78°
2026-05-04 21:41 44.63398 2.21200 24034 ft 337 kts 78°
2026-05-04 21:41 44.64052 2.24360 24042 ft 335 kts 78°
2026-05-04 21:41 44.64694 2.27460 24030 ft 334 kts 78°
2026-05-04 21:42 44.65342 2.30588 24009 ft 332 kts 79°
2026-05-04 21:42 44.65982 2.33685 23979 ft 329 kts 79°
2026-05-04 21:42 44.66619 2.36762 23939 ft 327 kts 79°
2026-05-04 21:42 44.67249 2.39815 23907 ft 324 kts 79°
2026-05-04 21:43 44.67861 2.42795 23872 ft 320 kts 79°
2026-05-04 21:43 44.68475 2.45785 23829 ft 316 kts 79°
2026-05-04 21:43 44.69075 2.48730 23782 ft 312 kts 79°
2026-05-04 21:43 44.69668 2.51648 23596 ft 308 kts 80°
2026-05-04 21:44 44.70256 2.54524 22651 ft 307 kts 79°
2026-05-04 21:44 44.70852 2.57445 21556 ft 319 kts 78°
2026-05-04 21:44 44.71481 2.60562 20746 ft 343 kts 78°
2026-05-04 21:44 44.72146 2.63841 20295 ft 353 kts 77°
2026-05-04 21:45 44.72816 2.67132 20089 ft 355 kts 77°
2026-05-04 21:45 44.73490 2.70459 19999 ft 353 kts 77°
2026-05-04 21:45 44.74156 2.73766 19960 ft 350 kts 77°
2026-05-04 21:45 44.74812 2.77049 19948 ft 347 kts 77°
2026-05-04 21:46 44.75462 2.80300 19946 ft 343 kts 77°
2026-05-04 21:46 44.76108 2.83505 19943 ft 339 kts 77°
2026-05-04 21:46 44.76745 2.86675 19944 ft 335 kts 77°
2026-05-04 21:46 44.77368 2.89781 19947 ft 331 kts 77°
2026-05-04 21:47 44.77997 2.92884 19946 ft 328 kts 77°
2026-05-04 21:47 44.78620 2.95956 19945 ft 325 kts 77°
2026-05-04 21:47 44.79226 2.98957 19945 ft 321 kts 78°
2026-05-04 21:47 44.79824 3.01958 19944 ft 317 kts 78°
2026-05-04 21:48 44.80415 3.04932 19946 ft 313 kts 78°
2026-05-04 21:48 44.80999 3.07861 19946 ft 309 kts 78°
2026-05-04 21:48 44.81376 3.10784 19942 ft 297 kts 95°
2026-05-04 21:48 44.81154 3.13621 19943 ft 286 kts 111°
2026-05-04 21:49 44.80209 3.15920 19869 ft 273 kts 140°
2026-05-04 21:49 44.78729 3.17679 19663 ft 279 kts 144°
2026-05-04 21:49 44.77248 3.19446 19448 ft 287 kts 141°
2026-05-04 21:49 44.75790 3.21384 19366 ft 290 kts 138°
2026-05-04 21:50 44.74370 3.23424 19299 ft 293 kts 136°
2026-05-04 21:50 44.72971 3.25526 19242 ft 296 kts 135°
2026-05-04 21:50 44.71579 3.27669 19182 ft 298 kts 135°
2026-05-04 21:50 44.70184 3.29840 19130 ft 300 kts 134°
2026-05-04 21:51 44.68784 3.32033 19067 ft 303 kts 134°
2026-05-04 21:51 44.67378 3.34240 18984 ft 306 kts 134°
2026-05-04 21:51 44.65939 3.36499 18757 ft 314 kts 134°